Regional Weather Roundup
Issued by NWS

Home | Current Version | Previous Version | Graphics & Text | Print | Product List | Glossary On
Versions: 1 2 3 4 5 6 7 8 9 10 11 12 13 14 15 16 17 18 19 20 21 22 23 24 25 26 27 28 29 30 31 32 33 34 35 36 37 38 39 40 41 42 43 44 45 46 47 48 49 50
000
ASUS43 KFSD 250910
RWRSD

WEATHER ROUNDUP FOR SOUTH DAKOTA
NATIONAL WEATHER SERVICE SIOUX FALLS SD
400 AM CDT SAT MAR 25 2017

NOTE: "FAIR" INDICATES FEW OR NO CLOUDS BELOW 12,000 FEET WITH NO
SIGNIFICANT WEATHER AND/OR OBSTRUCTIONS TO VISIBILITY.


SDZ001>005-009-010-012>017-251000-
NORTHWEST AND NORTH CENTRAL SOUTH DAKOTA

CITY           SKY/WX    TMP DP  RH WIND       PRES   REMARKS
BUFFALO          N/A     40  31  70 SE21      29.83F
FAITH            N/A     32  31  96 SE16      30.00F WCI  21
MOBRIDGE       CLEAR     30  25  81 E9        30.06F WCI  22
$$

SDZ012>016-024>037-041>051-057-063-072>074-251000-
SOUTHWEST AND SOUTH CENTRAL SOUTH DAKOTA

CITY           SKY/WX    TMP DP  RH WIND       PRES   REMARKS
RAPID CTY ARPT PTCLDY    39  29  67 S14       29.99F
PIERRE         CLOUDY    27  25  92 SE5       30.07F WCI  22
CUSTER         CLOUDY    35  23  61 SW6       30.01F
ELLSWORTH AFB  CLOUDY    40  29  67 S13       29.97F
PHILIP         CLOUDY    29  27  92 E8        30.03F WCI  21
PINE RIDGE     CLOUDY    39  30  70 S9        30.03F
SPEARFISH      FAIR      48  25  40 VRB6G17   29.90F
WINNER         SNOW      32  30  92 E6        30.10S VSB 1/4 WCI  26
$$

SDZ004>011-016>023-039-040-251000-
NORTHEAST SOUTH DAKOTA

CITY           SKY/WX    TMP DP  RH WIND       PRES   REMARKS
ABERDEEN       CLOUDY    29  26  89 NE3       30.15F
WATERTOWN      CLOUDY    33  30  88 E8        30.13S WCI  26
BROOKINGS      CLOUDY    33  30  88 E7        30.11S WCI  27
SISSETON         N/A     26  26 100 CALM      30.16F
$$

SDZ017-020-022-023-036>040-048>070-251000-
SOUTHEAST SOUTH DAKOTA

CITY           SKY/WX    TMP DP  RH WIND       PRES   REMARKS
SIOUX FALLS    CLOUDY    35  34  96 NE14      30.10S FOG     WCI  26
HURON          CLOUDY    37  33  85 E9        30.13F
CHAMBERLAIN    CLOUDY    36  35  97 CALM      30.11F
MITCHELL       CLOUDY    36  33  89 NE8       30.14S
YANKTON        CLOUDY    36  34  93 N9        30.09F
$$

ABBREVIATIONS USED IN REMARKS
   TC - TEMPERATURE IN CELSIUS
  WCI - WIND CHILL INDEX
   HX - HEAT INDEX
  VSB - VISIBILITY





USA.gov is the U.S. government's official web portal to all federal, state and local government web resources and services.